W2MMD-13 Weather Reports


time (UTC)temp
C
wind
direction
speed
KPH
gust
KPH
rain 1hr
cm
rain 24hr
cm
rain mn
cm
humidity
%
barometer
mb
20260505083839 15 158 4.8 4.8 0.00 0.00 0.00 82
20260505082839 15 158 4.8 4.8 0.00 0.00 0.00 82
20260505081850 15 180 8.0 8.0 0.00 0.00 0.00 82
20260505081839 15 158 4.8 4.8 0.00 0.00 0.00 82
20260505080953 15 180 8.0 8.0 0.00 0.00 0.00 83
20260505080839 15 180 8.0 8.0 0.00 0.00 0.00 83
20260505075850 15 158 4.8 4.8 0.00 0.00 0.00 83
20260505075839 15 203 4.8 4.8 0.00 0.00 0.00 83
20260505074839 14 158 6.4 6.4 0.00 0.00 0.00 83
20260505073852 15 180 6.4 6.4 0.00 0.00 0.00 82
20260505073839 15 180 4.8 4.8 0.00 0.00 0.00 82
20260505072839 15 180 8.0 8.0 0.00 0.00 0.00 82
20260505071839 15 203 8.0 8.0 0.00 0.00 0.00 83
20260505070839 15 180 8.0 8.0 0.00 0.00 0.00 83
20260505065839 15 203 4.8 4.8 0.00 0.00 0.00 82
20260505065314 15 158 6.4 6.4 0.00 0.00 0.00 82
20260505064851 15 158 6.4 6.4 0.00 0.00 0.00 82
20260505064839 15 158 8.0 8.0 0.00 0.00 0.00 82
20260505063839 15 203 8.0 8.0 0.00 0.00 0.00 82
20260505062850 15 203 6.4 6.4 0.00 0.00 0.00 82
20260505062840 15 158 4.8 4.8 0.00 0.00 0.00 82
20260505061852 15 158 14.5 14.5 0.00 0.00 0.00 81
20260505061839 15 180 8.0 8.0 0.00 0.00 0.00 81
20260505060839 15 203 8.0 8.0 0.00 0.00 0.00 81
20260505055956 15 113 8.0 8.0 0.00 0.00 0.00 81
20260505055850 15 113 8.0 8.0 0.00 0.00 0.00 81
20260505055839 15 180 9.7 9.7 0.00 0.00 0.00 81
20260505054839 15 180 8.0 8.0 0.00 0.00 0.00 80
20260505053839 15 180 8.0 8.0 0.00 0.00 0.00 79
20260505052839 15 158 14.5 14.5 0.00 0.00 0.00 78
20260505051840 15 158 6.4 6.4 0.00 0.00 0.00 77
20260505050840 16 135 11.3 11.3 0.00 0.00 0.00 75
20260505040840 15 158 8.0 8.0 0.00 0.00 0.00 73
20260505035840 16 158 17.7 17.7 0.00 0.00 0.00 73
20260505034840 16 180 12.9 12.9 0.00 0.00 0.00 73
20260505033840 16 113 14.5 14.5 0.00 0.00 0.00 73
20260505032840 16 158 8.0 8.0 0.00 0.00 0.00 73
20260505031853 16 158 9.7 9.7 0.00 0.00 0.00 73
20260505031840 16 158 12.9 12.9 0.00 0.00 0.00 73
20260505030840 16 135 9.7 9.7 0.00 0.00 0.00 72
20260505025839 16 135 9.7 9.7 0.00 0.00 0.00 71
20260505024839 16 113 8.0 8.0 0.00 0.00 0.00 69
20260505023839 16 158 12.9 12.9 0.00 0.00 0.00 68
20260505022839 16 113 6.4 6.4 0.00 0.00 0.00 67
20260505021839 16 158 8.0 8.0 0.00 0.00 0.00 65
20260505020850 16 135 8.0 8.0 0.00 0.00 0.00 62
20260505020839 16 135 6.4 6.4 0.00 0.00 0.00 62
20260505015851 16 113 9.7 9.7 0.00 0.00 0.00 58
20260505015839 16 113 8.0 8.0 0.00 0.00 0.00 58
20260505014839 16 135 6.4 6.4 0.00 0.00 0.00 57
20260505013852 17 180 6.4 6.4 0.00 0.00 0.00 56
20260505013839 17 135 6.4 6.4 0.00 0.00 0.00 56
20260505012839 17 113 8.0 8.0 0.00 0.00 0.00 55
20260505011839 17 180 6.4 6.4 0.00 0.00 0.00 55
20260505010923 17 158 8.0 8.0 0.00 0.00 0.00 55
20260505010839 17 158 8.0 8.0 0.00 0.00 0.00 55
20260505005839 17 135 9.7 9.7 0.00 0.00 0.00 57
20260505004839 17 158 1.6 1.6 0.00 0.00 0.00 56
20260505003839 17 158 11.3 11.3 0.00 0.00 0.00 55
20260505002839 17 90 6.4 6.4 0.00 0.00 0.00 55
20260505001839 18 135 8.0 8.0 0.00 0.00 0.00 53
20260505000851 18 158 6.4 6.4 0.00 0.00 0.00 51
20260505000839 18 158 8.0 8.0 0.00 0.00 0.00 51
20260504235839 19 135 6.4 6.4 0.00 0.00 0.00 50
20260504234851 19 158 8.0 8.0 0.00 0.00 0.00 49
20260504234839 20 158 4.8 4.8 0.00 0.00 0.00 49
20260504233850 20 113 6.4 6.4 0.00 0.00 0.00 47
20260504233839 20 113 4.8 4.8 0.00 0.00 0.00 47
20260504232924 20 158 6.4 6.4 0.00 0.00 0.00 45
20260504232839 20 158 6.4 6.4 0.00 0.00 0.00 45
20260504231851 21 158 9.7 9.7 0.00 0.00 0.00 44
20260504231839 21 158 8.0 8.0 0.00 0.00 0.00 44
20260504230840 21 180 4.8 4.8 0.00 0.00 0.00 44
20260504225852 21 225 14.5 14.5 0.00 0.00 0.00 43
20260504225840 21 225 11.3 11.3 0.00 0.00 0.00 43
20260504224840 21 135 6.4 6.4 0.00 0.00 0.00 42
20260504223912 21 135 11.3 11.3 0.00 0.00 0.00 42
20260504223840 21 135 11.3 11.3 0.00 0.00 0.00 42
20260504222852 22 158 4.8 4.8 0.00 0.00 0.00 42
20260504222840 22 158 6.4 6.4 0.00 0.00 0.00 42
20260504221840 22 203 17.7 17.7 0.00 0.00 0.00 40
20260504220840 22 203 14.5 14.5 0.00 0.00 0.00 38
20260504215840 22 225 17.7 17.7 0.00 0.00 0.00 38
20260504214840 22 203 17.7 17.7 0.00 0.00 0.00 38
20260504213840 22 203 19.3 19.3 0.00 0.00 0.00 38
20260504212840 22 180 11.3 11.3 0.00 0.00 0.00 37
20260504211852 22 180 14.5 14.5 0.00 0.00 0.00 37
20260504211840 22 180 17.7 17.7 0.00 0.00 0.00 37
20260504210839 22 225 14.5 14.5 0.00 0.00 0.00 36
20260504205839 22 225 32.2 32.2 0.00 0.00 0.00 37
20260504204839 22 225 17.7 17.7 0.00 0.00 0.00 36
20260504203851 22 180 20.9 20.9 0.00 0.00 0.00 37
20260504203839 22 180 16.1 16.1 0.00 0.00 0.00 37
20260504202852 22 203 19.3 19.3 0.00 0.00 0.00 37
20260504202839 22 203 19.3 19.3 0.00 0.00 0.00 36
20260504201839 23 225 12.9 12.9 0.00 0.00 0.00 36
20260504200852 23 225 17.7 17.7 0.00 0.00 0.00 36
20260504200839 23 180 14.5 14.5 0.00 0.00 0.00 36
20260504195839 22 180 25.7 25.7 0.00 0.00 0.00 35
20260504194942 22 225 19.3 19.3 0.00 0.00 0.00 35
20260504194852 22 225 19.3 19.3 0.00 0.00 0.00 35
20260504194839 22 248 20.9 20.9 0.00 0.00 0.00 35
20260504193839 22 203 19.3 19.3 0.00 0.00 0.00 34
20260504192839 22 180 16.1 16.1 0.00 0.00 0.00 35
20260504191852 22 180 22.5 22.5 0.00 0.00 0.00 35
20260504191839 22 225 20.9 20.9 0.00 0.00 0.00 35
20260504191110 22 203 20.9 20.9 0.00 0.00 0.00 35
20260504190927 22 203 20.9 20.9 0.00 0.00 0.00 35
20260504190839 22 203 20.9 20.9 0.00 0.00 0.00 35
20260504185850 22 203 24.1 24.1 0.00 0.00 0.00 34
20260504185839 22 203 19.3 19.3 0.00 0.00 0.00 34
20260504184839 22 203 22.5 22.5 0.00 0.00 0.00 34
20260504183852 22 203 9.7 9.7 0.00 0.00 0.00 36
20260504183839 22 203 14.5 14.5 0.00 0.00 0.00 36
20260504182839 22 225 17.7 17.7 0.00 0.00 0.00 35
20260504181839 22 225 19.3 19.3 0.00 0.00 0.00 35
20260504180851 22 203 17.7 17.7 0.00 0.00 0.00 36
20260504180839 22 203 16.1 16.1 0.00 0.00 0.00 36
20260504175839 21 248 16.1 16.1 0.00 0.00 0.00 35
20260504174839 21 225 16.1 16.1 0.00 0.00 0.00 36
20260504173839 21 203 19.3 19.3 0.00 0.00 0.00 37
20260504172839 21 180 16.1 16.1 0.00 0.00 0.00 38
20260504171839 21 225 17.7 17.7 0.00 0.00 0.00 36
20260504170839 20 270 24.1 24.1 0.00 0.00 0.00 36
20260504150840 18 203 19.3 19.3 0.00 0.00 0.00 46
20260504140851 17 203 17.7 17.7 0.00 0.00 0.00 56
20260504140839 17 203 14.5 14.5 0.00 0.00 0.00 55